Weather History for KNBC - January, 2014

Change the Weather History Date:

Thursday, January 16, 2014

  Actual Average Record
Temperature  
Mean Temperature 41 °F -  
Max Temperature 48 °F 58 °F 86 °F (1950)
Min Temperature 34 °F 36 °F 21 °F (1948)
Degree Days  
Heating Degree Days 24    
Moisture  
Dew Point 23 °F    
Average Humidity 49    
Maximum Humidity 73    
Minimum Humidity 28    
Precipitation  
Precipitation 0.00 in - - ()
Sea Level Pressure  
Sea Level Pressure 30.05 in    
Wind  
Wind Speed 9 mph (WNW)    
Max Wind Speed 13 mph    
Max Gust Speed 17 mph    
Visibility 9 miles    
Events      
Averages and records for this station are not official NWS values.
T = Trace of Precipitation, MM = Missing Value Source: NWS Daily Summary

Daily Weather History Graph

Daily Weather History Graph

Search for Another Location

Airport or City:

Trip Planner

Search our weather history database for the weather conditions in past years. The results will help you decide how hot, cold, wet, or windy it might be!

Date:

Astronomy

Jan. 16, 2014 Rise Set
Actual Time 7:24 AM EST 5:41 PM EST
Civil Twilight 6:57 AM EST 6:07 PM EST
Nautical Twilight 6:27 AM EST 6:37 PM EST
Astronomical Twilight 5:58 AM EST 7:07 PM EST
Moon 6:25 PM EST (1/16) 7:21 AM EST (1/16)
Length of Visible Light 11h 09m
Length of Day
10h 16m
Full, 100% of the Moon is Illuminated
Jan 16
Full
Jan 24
Last Quarter
Jan 30
New
Feb 6
First Quarter
Feb 14
Full

Hourly Weather History & Observations

Time (EST) Temp. Windchill Dew Point Humidity Pressure Visibility Wind Dir Wind Speed Gust Speed Precip Events Conditions
12:56 AM 46.9 °F - 30.0 °F 52% 29.96 in 10.0 mi NW 10.4 mph - N/A   Overcast
1:56 AM 46.9 °F - 28.0 °F 48% 29.97 in 10.0 mi NW 12.7 mph - N/A   Overcast
2:56 AM 46.0 °F 41.9 °F 23.0 °F 40% 29.99 in 10.0 mi NW 8.1 mph - N/A   Overcast
3:56 AM 44.1 °F 39.5 °F 21.0 °F 40% 29.99 in 10.0 mi NW 8.1 mph 17.3 mph N/A   Scattered Clouds
4:56 AM 42.1 °F 35.2 °F 19.9 °F 41% 30.00 in 10.0 mi NW 12.7 mph - N/A   Clear
5:56 AM 37.9 °F 31.5 °F 21.9 °F 53% 30.02 in 10.0 mi WNW 9.2 mph - N/A   Clear
6:56 AM 35.1 °F 27.9 °F 23.0 °F 61% 30.04 in 10.0 mi WNW 9.2 mph - N/A   Scattered Clouds
7:56 AM 35.1 °F 27.9 °F 24.1 °F 64% 30.05 in 7.0 mi WNW 9.2 mph - N/A   Partly Cloudy
8:56 AM 37.0 °F 29.3 °F 23.0 °F 57% 30.08 in 7.0 mi WNW 11.5 mph - N/A   Partly Cloudy
9:56 AM 39.9 °F 34.5 °F 24.1 °F 53% 30.08 in 7.0 mi NW 8.1 mph - N/A   Partly Cloudy
10:56 AM 44.1 °F 39.0 °F 24.1 °F 45% 30.08 in 7.0 mi North 9.2 mph - N/A   Partly Cloudy
11:56 AM 46.0 °F 41.9 °F 25.0 °F 44% 30.06 in 10.0 mi NNW 8.1 mph - N/A   Partly Cloudy
12:56 PM 46.9 °F - 24.1 °F 41% 30.02 in 10.0 mi West 8.1 mph - N/A   Partly Cloudy
1:56 PM 48.0 °F - 21.0 °F 34% 30.01 in 7.0 mi West 10.4 mph - N/A   Partly Cloudy
2:56 PM 48.0 °F - 19.0 °F 32% 30.02 in 10.0 mi WNW 11.5 mph - N/A   Clear
3:56 PM 48.9 °F - 17.1 °F 28% 30.04 in 10.0 mi WNW 9.2 mph - N/A   Clear
4:56 PM 46.9 °F - 17.1 °F 30% 30.05 in 10.0 mi West 9.2 mph - N/A   Clear
5:56 PM 43.0 °F 38.8 °F 19.0 °F 38% 30.06 in 10.0 mi West 6.9 mph - N/A   Clear
6:56 PM 37.9 °F 35.5 °F 21.9 °F 53% 30.09 in 10.0 mi WSW 3.5 mph - N/A   Clear
7:56 PM 37.9 °F 35.5 °F 24.1 °F 57% 30.11 in 10.0 mi WSW 3.5 mph - N/A   Clear
8:56 PM 36.0 °F - 25.0 °F 64% 30.11 in 10.0 mi Calm Calm - N/A   Clear
9:56 PM 35.1 °F 31.0 °F 25.0 °F 67% 30.12 in 10.0 mi WSW 4.6 mph - N/A   Clear
10:56 PM 34.0 °F 28.8 °F 26.1 °F 73% 30.12 in 10.0 mi WSW 5.8 mph - N/A   Clear
11:56 PM 36.0 °F 31.1 °F 27.0 °F 70% 30.12 in 10.0 mi SW 5.8 mph - N/A   Clear